Погода в Ашхабаде

Поиск расширенной информации на нашем сайте:

Полезная информация:

Новости сайта



02.01.2020
Опубликован Долгосрочный прогноз погоды по городам России и ближнего зарубежья на январь 2020 года.
Карты: Прогноз на январь и февраль 2020 года, Сравнение прогнозируемой аномалии приземной температуры воздуха на январь 2020 года по разным моделям.




Погода в Ашхабаде - сегодня

Время (UTC), дата Ветер
(°,м/с) 
Видим.   Явления Облачность Т
(°С)
Тd
(°С)
f(%) Тe
(°С)
Pmin
(гПа)
dP
(гПа)
Po
(мм)
O2
(г/м3)
Тmin Tmax R s Состояние
почвы
18 15.01.22 280 (З) 13  10 км  слаб. ливневой дождь  10/6 1000 м кучево-дожд., средняя 
[Cb cap|Ac und]
+14.7 +2.6 44 +13  1002.8  4.3  734  280    +11.3       
21 15.01.22 290 (З) 4{18}  4000 м  шквал  4/0 
[Sc]
+7 +5.2 88 +6  1003.3  0.3  734  287           
00 16.01.22 250 (З) 10 км  {ливн. осадки}  4/3 1000 м средняя 
[Sc|Ac trans]
+6 +2.9 80 +6  1008.1  4.6  737  290           
03 16.01.22 320 (СЗ) 10 км  слаб. ливневой дождь  10/10 600 м кучево-дожд. 
[Cb cap]
+6.2 +3.1 81 +6  1011.6  3.4  740  291  +5.6    0.0     
06 16.01.22 320 (СЗ) 10 км  в посл. час ливневой дождь  10/10 900 м кучево-дожд. 
[Cb cap]
+5 +2 81 +3  1015.9  4.1  743  294  +5.6         
09 16.01.22 320 (СЗ) 10 км    10/10 960 м кучево-дожд. 
[Cb cap]
+5.4 +2.5 82 +5  1015.9  743  293           
12 16.01.22 080 (В) 10 км    10/10 1110 м кучево-дожд. 
[Cb cap]
+6.6 +2.2 73 +6  1014.3  -1.4  742  291           
15 16.01.22 100 (В) 10 км    10/10 800 м кучево-дожд. 
[Cb cap]
+5.6 +2.1 78 +4  1014.9  0.4  742  293    +6.6     
18 16.01.22 090 (В) 10 км    10/10 450 м кучево-дожд. 
[Cb cap]
+4.1 +1.6 84 +2  1015.9  0.9  743  295    +6.6     
21 16.01.22 080 (В) 10 км    10/10 480 м 
[Sc]
+3 +1.2 88 +2  1016.1  0.1  743  296           
00 17.01.22 030 (СВ) 10 км    10/10 120 м 
[St]
+2.1 +0.5 89 +3  1016.8  0.7  743  297           
03 17.01.22 080 (В) 10 км    10/10 600 м 
[Sc]
+2.8 +1 88 +2  1017.2  0.4  743  296  +2        влажная 
06 17.01.22 130 (ЮВ) 10 км    5/0 средняя 
[Sc|Ac trans]
+3.6 +1 83 +2  1020  2.8  746  296  +2         
09 17.01.22 тихо ()   10 км    5/0 средняя 
[Sc|Ac trans]
+8.1 +1.2 62 +8  1018.4  -1.2  745  291           
12 17.01.22 020 (С) 10 км    10/10 700 м кучево-дожд. 
[Cb cap]
+7.4 +1.8 68 +6  1019.5  745  292           
15 17.01.22 020 (С) 10 км    10/10 270 м 
[St]
+4.8 +2.8 87 +4  1022  2.2  747  295    +8.8       
18 17.01.22 110 (В) 2000 м  слаб. морось  10/10 50 м 
[St]
+3.8 +3.3 97 +3  1022.2  0.2  747  296    +8.8       
21 17.01.22 110 (В) 10 км    10/10 330 м 
[St]
+4.2 +1.7 84 +2  1020.5  -1.6  746  296           
03 18.01.22 120 (ЮВ) 10 км    10/10 180 м 
[St]
+3.2 +1.7 90 +2  1018.3  -0.9  744  296  +3.2    0.0    влажная 
06 18.01.22 080 (В) 4000 м    10/10 210 м 
[St]
+3.2 +1.7 90 +3  1017.4  -0.9  744  296  +3.2    0.0     
09 18.01.22 310 (СЗ) 10 км  слаб. дождь  10/10 210 м 
[Ns]
+3.6 +2.6 93 +2  1015.3  -2.1  742  295           
12 18.01.22 310 (СЗ) 10 км    10/10 210 м 
[St]
+3.4 +1.9 90 +1  1016  0.7  743  295           
15 18.01.22 300 (СЗ) 10 км    10/10 270 м 
[St]
+2.8 +1.2 89 1017.1  1.1  743  296    +3.8  0.8     
18 18.01.22 330 (СЗ) 10 км  слаб. дождь  10/10 210 м 
[Ns]
+2.6 +1.8 94 1019.3  2.1  745  297    +3.8       
21 18.01.22 320 (СЗ) 10 км    10/10 270 м 
[St]
+2.2 +0.6 89 1020.4  1.1  746  298           
Время (UTC), дата Ветер
(°,м/с) 
Видим.   Явления Облачность Т
(°С)
Тd
(°С)
f(%) Тe
(°С)
Pmin
(гПа)
dP
(гПа)
Po
(мм)
O2
(г/м3)
Тmin Tmax R s Состояние
почвы

Для получения пояснительной информации подведите курсор к названию столбца.

ПОГОДА в Ашхабаде - архив

Всё, что Вы хотите узнать о погоде в Ашхабаде - удобно и подробно!

Выберите нужную дату (начиная с 1 января 2019* года) и нажмите кнопку "Найти".
Будут отображены архивные сводки погоды по пункту Ашхабад, начиная с указанной даты.


Отображать данные в формате CSV (для использования в таблицах Excel)


Внимание! Наш архив погоды предназначен исключительно для личного некоммерческого использования в познавательных целях. Если Вам необходимы официальные справки о состоянии погоды (для производственных, юридических, коммерческих и т.п. целей), обращайтесь в органы Росгидромета.

*Примечание: данная дата относится к архиву по метеостанциям СССР (Россия, СНГ, Балтия).
Архив по метеостанциям Зарубежной Европы и Азии (кроме Китая) хранится 10 дней, по другим регионам земного шара (Китай, Африка, Америка, Австралия, Океания) - 1 день.

Ашхабад - район местоположения метеостанции


Название, широта, долгота, высота метеостанции:
Ашхабад (город) 38°ш. 58.3°д. 208 м над ур. моря [Туркменистан]

Дополнительная информация

В oтличие oт бoльшинства пoгoдных сайтoв мы публикуем пoдрoбную метеoинфoрмацию в детальнoм прoфессиoнальнoм фoрмате.

Характеристики температуры и влажнoсти вoздуха измеряются на высoте 2 м в тени вдали oт зданий и деревьев.
Скoрoсть ветра измеряется на высoте 10 м (на урoвне рoста челoвека скoрoсть ветра ниже в 1.5-2 раза). Если метеoстанция нахoдится в гoрoде или в лесу, тo скoрoсть ветра занижена на 2-4 м/с пo сравнению с oткрытым местoм. Скoрoсть ветра над акватoриями крупных рек и oзёр, а также на вершинах хoлмoв на 2-5 м/с выше, чем в oбычных услoвиях.
Атмoсфернoе давление в разных тoчках местнoсти мoжет значительнo oтличаться oт давления на метеoстанции, в зависимoсти oт услoвий рельефа (при пoдъёме на 10 м давление пoнижается примернo на 1 мм рт.ст.).